This demonstration page uses our WeatherBlox Daily Observations layout. Learn more.

Left ArrowRight Arrow

Hourly Observations for July 20, 2019

Temp ( °F °C ) Dew Point ( °F °C ) Humidity (%) Winds ( mph kmh ) Pressure ( in mb ) Visibility ( mi km ) Precip ( " mm )
12:56 am 00:56 Clear 82 27.8 67 19.4 60 60 S 12 19 29.68 1005 10 16 0.00 0.00
1:56 am 01:56 Clear 81 27.2 67 19.4 62 62 S 13 20 29.67 1005 10 16 0.00 0.00
2:56 am 02:56 Clear 78 25.6 66 18.9 67 67 SSE 10 17 29.67 1005 10 16 0.00 0.00
3:56 am 03:56 Clear 76 24.4 66 18.9 72 72 S 10 17 29.67 1005 10 16 0.00 0.00
4:56 am 04:56 Clear 75 23.9 65 18.3 71 71 S 10 17 29.66 1004 10 16 0.00 0.00
5:56 am 05:56 Clear 73 22.8 65 18.3 76 76 S 13 20 29.65 1004 10 16 0.00 0.00
6:56 am 06:56 Sunny 73 22.8 65 18.3 76 76 S 9 15 29.66 1005 10 16 0.00 0.00
7:56 am 07:56 Sunny 76 24.4 66 18.9 72 72 S 9 15 29.67 1005 10 16 0.00 0.00
8:56 am 08:56 Sunny 80 26.7 68 20 67 67 S 12 19 29.68 1005 10 16 0.00 0.00
9:56 am 09:56 Sunny 82 27.8 69 20.6 65 65 S 14 22 29.67 1005 10 16 0.00 0.00
10:56 am 10:56 Sunny 85 29.4 69 20.6 59 59 NNW 9 15 29.73 1007 10 16 0.00 0.00
11:56 am 11:56 Sunny 85 29.4 70 21.1 61 61 N 7 11 29.75 1007 10 16 0.00 0.00
12:56 pm 12:56 Sunny 86 30 72 22.2 63 63 NE 9 15 29.76 1008 10 16 0.00 0.00
1:56 pm 13:56 Mostly Cloudy 84 28.9 72 22.2 67 67 NNE 14 22 29.78 1009 10 16 0.00 0.00
2:56 pm 14:56 Partly Cloudy 82 27.8 73 22.8 74 74 NE 17 28 29.79 1009 10 16 0.00 0.00
3:56 pm 15:56 Partly Cloudy with Light Rain 81 27.2 74 23.3 79 79 ENE 9 15 29.80 1009 10 16 0.00 0.03
4:56 pm 16:56 Sunny 83 28.3 73 22.8 72 72 NE 10 17 29.81 1010 10 16 0.00 0.03
5:56 pm 17:56 Sunny 84 28.9 74 23.3 72 72 NE 13 20 29.83 1010 10 16 0.00 0.00
6:26 pm 18:26 Mostly Cloudy 84 29 75 24 74 74 NE 17 28 29.74 1007 10 16 0.00 0.00
6:33 pm 18:33 Mostly Sunny 82 28 75 24 79 79 NE 17 28 29.75 1007 10 16 0.00 0.00
6:56 pm 18:56 Sunny 82 27.8 74 23.3 77 77 ENE 18 30 29.81 1010 10 16 0.00 0.00
7:56 pm 19:56 Sunny 80 26.7 74 23.3 82 82 NNE 14 22 29.83 1010 10 16 0.00 0.00
8:40 pm 20:40 Mostly Cloudy 79 26 73 23 84 84 NNE 17 28 29.79 1009 10 16 0.00 0.00
8:56 pm 20:56 Cloudy 75 23.9 68 20 79 79 N 25 41 29.85 1011 10 16 0.00 0.00
9:56 pm 21:56 Cloudy 72 22.2 67 19.4 84 84 NE 20 31 29.88 1012 10 16 0.00 0.00
10:56 pm 22:56 Cloudy 72 22.2 67 19.4 84 84 NE 18 30 29.90 1012 10 16 0.00 0.00
11:56 pm 23:56 Cloudy 71 21.7 65 18.3 81 81 NE 17 28 29.90 1013 10 16 0.00 0.00

Powered by AerisWeather